This is the latest recevied weather packets stored in our database for station/object K9RJT. If no packets are shown the sender has not sent any weather packets the latest 10 day(s).
| Time | Temp. | Humidity | Pressure | Rain* | Wind** | Luminosity | Snow |
|---|---|---|---|---|---|---|---|
| 1777999827 | 17.78° C | 54% | 1009.6 hPa | 0 mm | - | 509 W/m² | - |
| 1777999523 | 17.78° C | 55% | 1009.6 hPa | 0 mm | - | 497 W/m² | - |
| 1777999221 | 17.22° C | 56% | 1009.4 hPa | 0 mm | - | 486 W/m² | - |
| 1777998919 | 17.22° C | 55% | 1009.6 hPa | 0 mm | - | 476 W/m² | - |
| 1777998616 | 16.67° C | 56% | 1009.4 hPa | 0 mm | - | 463 W/m² | - |
| 1777998309 | 16.67° C | 57% | 1009.7 hPa | 0 mm | - | 451 W/m² | - |
| 1777998006 | 17.22° C | 55% | 1009.7 hPa | 0 mm | - | 441 W/m² | - |
| 1777997702 | 17.22° C | 55% | 1009.8 hPa | 0 mm | - | 429 W/m² | - |
| 1777997400 | 16.67° C | 54% | 1009.7 hPa | 0 mm | - | 415 W/m² | - |
| 1777997098 | 15.56° C | 58% | 1009.7 hPa | 0 mm | - | 402 W/m² | - |
| 1777996794 | 15.56° C | 56% | 1009.7 hPa | 0 mm | - | 392 W/m² | - |
| 1777996491 | 15.56° C | 58% | 1009.7 hPa | 0 mm | - | 382 W/m² | - |
| 1777996188 | 15° C | 58% | 1009.9 hPa | 0 mm | - | 343 W/m² | - |
| 1777995884 | 14.44° C | 59% | 1009.8 hPa | 0 mm | - | 354 W/m² | - |
| 1777995580 | 15° C | 58% | 1009.7 hPa | 0 mm | - | 342 W/m² | - |
| 1777995278 | 13.89° C | 60% | 1009.9 hPa | 0 mm | - | 329 W/m² | - |
| 1777994974 | 13.33° C | 61% | 1009.7 hPa | 0 mm | - | 317 W/m² | - |
| 1777994672 | 12.78° C | 63% | 1009.8 hPa | 0 mm | - | 308 W/m² | - |
| 1777994372 | 13.89° C | 61% | 1009.7 hPa | 0 mm | - | 296 W/m² | - |
| 1777994068 | 13.33° C | 62% | 1009.8 hPa | 0 mm | - | 283 W/m² | - |
| 1777993765 | 13.33° C | 61% | 1009.7 hPa | 0 mm | - | 269 W/m² | - |
| 1777993462 | 12.78° C | 61% | 1009.8 hPa | 0 mm | - | 256 W/m² | - |
| 1777993162 | 12.78° C | 62% | 1009.8 hPa | 0 mm | - | 242 W/m² | - |
| 1777992860 | 12.78° C | 62% | 1010 hPa | 0 mm | - | 230 W/m² | - |
| 1777992558 | 12.22° C | 62% | 1009.7 hPa | 0 mm | - | 217 W/m² | - |
* Rain latest hour (hover to see other rain measurements)
** Current wind speed in m/s (hover to see current wind gust speed)